User: anonymous   Login
Location: Unspecified
(0.0000°N, 0.0000°E)
Time: 01:34:59
(UTC+02:00)
Language:

Cosmos 1315 Rocket - Orbit

View from above orbital plane
View from above orbital plane
View from above satellite
View from above satellite

Ground track
Ground track

The orbit data is extracted from the following two-line orbital elements,

1 12904U 81103B   17112.93831025 +.00000222 +00000-0 +13824-4 0  9990
2 12904 081.1771 338.6667 0027290 245.8960 113.9408 15.05245695484291
Epoch (UTC): 22 April 2017 22:31:10
Eccentricity: 0.0027290
inclination: 81.1771°
perigee height: 532 km
apogee height: 569 km
right ascension of ascending node: 338.6667°
argument of perigee: 245.8960°
revolutions per day: 15.05245695
mean anomaly at epoch: 113.9408°
orbit number at epoch: 48429

The dashed part of the orbit path shows where the satellite is in the earth's shadow,  

DLR